Weather History for Iron Mountain, MI

Change the Weather History Date:

Thursday, February 14, 2013

  Actual Average Record
Temperature  
Mean Temperature 22 °F -  
Max Temperature 30 °F 28 °F 46 °F (1954)
Min Temperature 14 °F 4 °F -24 °F (1970)
Degree Days  
Heating Degree Days 42    
Moisture  
Dew Point 22 °F    
Average Humidity 84    
Maximum Humidity 93    
Minimum Humidity 69    
Precipitation  
Precipitation 0.00 in - - ()
Sea Level Pressure  
Sea Level Pressure 29.68 in    
Wind  
Wind Speed 5 mph (North)    
Max Wind Speed 18 mph    
Max Gust Speed 25 mph    
Visibility 5 miles    
Events Snow    
Averages and records for this station are not official NWS values.
T = Trace of Precipitation, MM = Missing Value Source: NWS Daily Summary

Daily Weather History Graph

Daily Weather History Graph

Search for Another Location

Airport:

Trip Planner

Search our weather history database for the weather conditions in past years. The results will help you decide how hot, cold, wet, or windy it might be!

Date:

Astronomy

Feb. 14, 2013 Rise Set
Actual Time 6:55 AM CST 5:17 PM CST
Civil Twilight 6:25 AM CST 5:48 PM CST
Nautical Twilight 5:50 AM CST 6:23 PM CST
Astronomical Twilight 5:15 AM CST 6:58 PM CST
Moon 8:40 AM CST (2/14) 10:40 PM CST (2/14)
Length of Visible Light 11h 23m
Length of Day
10h 22m
Waxing Crescent, 22% of the Moon is Illuminated
Feb 14
Waxing Crescent
Feb 17
First Quarter
Feb 25
Full
Mar 4
Last Quarter
Mar 11
New

Hourly Weather History & Observations

Time (CST) Temp. Windchill Dew Point Humidity Pressure Visibility Wind Dir Wind Speed Gust Speed Precip Events Conditions
12:25 AM 24.8 °F - 23.0 °F 93% 29.58 in 10.0 mi Calm Calm - N/A   Overcast
12:54 AM 26.1 °F - 24.1 °F 92% 29.62 in 10.0 mi Calm Calm - N/A   Overcast
1:24 AM 26.6 °F - 24.8 °F 93% 29.58 in 2.5 mi Calm Calm - 0.00 in Snow Light Snow
1:41 AM 26.6 °F - 24.8 °F 93% 29.58 in 4.0 mi Calm Calm - 0.00 in Snow Light Snow
1:54 AM 27.0 °F - 25.0 °F 92% 29.62 in 5.0 mi Calm Calm - 0.00 in Snow Light Snow
2:09 AM 28.4 °F - 24.8 °F 86% 29.58 in 1.8 mi Calm Calm - 0.00 in Snow Light Snow
2:21 AM 28.4 °F 24.6 °F 26.6 °F 93% 29.58 in 2.0 mi North 3.5 mph - 0.00 in Snow Light Snow
2:28 AM 28.4 °F 23.3 °F 26.6 °F 93% 29.58 in 1.8 mi North 4.6 mph - 0.00 in Snow Light Snow
2:49 AM 28.4 °F 24.6 °F 26.6 °F 93% 29.58 in 1.5 mi North 3.5 mph - 0.00 in Snow Light Snow
2:54 AM 28.9 °F - 27.0 °F 92% 29.62 in 1.5 mi Calm Calm - 0.00 in Snow Light Snow
3:40 AM 28.4 °F - 26.6 °F 93% 29.58 in 1.8 mi Calm Calm - 0.00 in Snow Light Snow
3:51 AM 28.4 °F - 26.6 °F 93% 29.58 in 2.0 mi Calm Calm - 0.00 in Snow Light Snow
3:54 AM 28.9 °F 25.2 °F 26.1 °F 89% 29.62 in 2.5 mi NE 3.5 mph - 0.00 in Snow Light Snow
4:05 AM 28.4 °F 23.3 °F 26.6 °F 93% 29.58 in 3.0 mi NE 4.6 mph - 0.00 in Snow Light Snow
4:20 AM 28.4 °F 23.3 °F 26.6 °F 93% 29.58 in 2.5 mi North 4.6 mph - 0.00 in Snow Light Snow
4:38 AM 28.4 °F 23.3 °F 26.6 °F 93% 29.58 in 1.5 mi NNE 4.6 mph - 0.00 in Snow Light Snow
4:54 AM 28.0 °F 21.7 °F 26.1 °F 92% 29.62 in 1.8 mi NE 5.8 mph - 0.00 in Snow Light Snow
5:24 AM 28.4 °F 22.2 °F 26.6 °F 93% 29.59 in 2.0 mi NNE 5.8 mph - 0.00 in Snow Light Snow
5:35 AM 28.4 °F 23.3 °F 26.6 °F 93% 29.59 in 1.5 mi North 4.6 mph - 0.00 in Snow Light Snow
5:51 AM 28.4 °F 23.3 °F 24.8 °F 86% 29.59 in 2.5 mi NNE 4.6 mph - 0.00 in Snow Light Snow
5:54 AM 28.0 °F 20.8 °F 25.0 °F 88% 29.64 in 3.0 mi NNE 6.9 mph - 0.00 in Snow Light Snow
6:03 AM 28.4 °F 23.3 °F 24.8 °F 86% 29.59 in 3.0 mi NNE 4.6 mph - 0.00 in Snow Light Snow
6:26 AM 28.4 °F 24.6 °F 26.6 °F 93% 29.60 in 2.0 mi North 3.5 mph - 0.00 in Snow Light Snow
6:44 AM 28.4 °F 23.3 °F 26.6 °F 93% 29.60 in 2.5 mi North 4.6 mph - 0.00 in Snow Light Snow
6:54 AM 28.0 °F 21.7 °F 25.0 °F 88% 29.65 in 2.5 mi North 5.8 mph - 0.00 in Snow Light Snow
7:25 AM 28.4 °F 23.3 °F 24.8 °F 86% 29.62 in 3.0 mi North 4.6 mph - 0.00 in Snow Light Snow
7:32 AM 28.4 °F 22.2 °F 24.8 °F 86% 29.62 in 2.5 mi North 5.8 mph - 0.00 in Snow Light Snow
7:40 AM 28.4 °F 23.3 °F 24.8 °F 86% 29.62 in 3.0 mi North 4.6 mph - 0.00 in Snow Light Snow
7:54 AM 28.0 °F 22.8 °F 25.0 °F 88% 29.67 in 6.0 mi North 4.6 mph - 0.00 in   Overcast
8:52 AM 28.4 °F 21.2 °F 24.8 °F 86% 29.63 in 1.8 mi North 6.9 mph - 0.00 in Snow Light Snow
8:54 AM 28.0 °F 20.0 °F 24.1 °F 85% 29.68 in 1.8 mi North 8.1 mph - 0.00 in Snow Light Snow
9:07 AM 28.4 °F 20.4 °F 24.8 °F 86% 29.63 in 1.2 mi North 8.1 mph - 0.00 in Snow Light Snow
9:52 AM 28.4 °F 19.7 °F 24.8 °F 86% 29.64 in 2.0 mi North 9.2 mph - 0.00 in Snow Light Snow
9:54 AM 28.0 °F 18.6 °F 24.1 °F 85% 29.69 in 2.5 mi North 10.4 mph - 0.00 in Snow Light Snow
10:17 AM 28.4 °F 19.7 °F 23.0 °F 80% 29.64 in 4.0 mi North 9.2 mph - 0.00 in Snow Light Snow
10:25 AM 28.4 °F 19.1 °F 23.0 °F 80% 29.64 in 5.0 mi North 10.4 mph - 0.00 in   Haze
10:45 AM 28.4 °F 20.4 °F 23.0 °F 80% 29.64 in 10.0 mi North 8.1 mph - 0.00 in   Overcast
10:54 AM 28.9 °F 20.4 °F 24.1 °F 82% 29.69 in 6.0 mi North 9.2 mph - 0.00 in   Haze
11:18 AM 30.2 °F 21.3 °F 24.8 °F 80% 29.64 in 4.0 mi North 10.4 mph - 0.00 in Snow Light Snow
11:23 AM 30.2 °F 21.3 °F 24.8 °F 80% 29.64 in 2.5 mi North 10.4 mph - 0.00 in Snow Light Snow
11:39 AM 30.2 °F 22.6 °F 24.8 °F 80% 29.64 in 8.0 mi NNW 8.1 mph - 0.00 in Snow Light Snow
11:54 AM 30.0 °F 21.1 °F 24.1 °F 79% 29.69 in 3.0 mi NNW 10.4 mph - 0.00 in Snow Light Snow
12:10 PM 30.2 °F 20.8 °F 24.8 °F 80% 29.64 in 2.5 mi North 11.5 mph - 0.00 in Snow Light Snow
12:24 PM 30.2 °F 20.8 °F 26.6 °F 86% 29.65 in 3.0 mi NNW 11.5 mph - 0.00 in Snow Light Snow
12:32 PM 30.2 °F 18.9 °F 24.8 °F 80% 29.65 in 3.0 mi North 16.1 mph - 0.00 in Snow Light Snow
12:44 PM 30.2 °F 19.3 °F 23.0 °F 75% 29.66 in 6.0 mi North 15.0 mph - 0.00 in Snow Light Snow
12:54 PM 30.0 °F 20.0 °F 23.0 °F 75% 29.71 in 4.0 mi North 12.7 mph - 0.00 in Snow Light Snow
1:54 PM 28.0 °F 15.3 °F 21.0 °F 75% 29.74 in 10.0 mi NNW 18.4 mph - 0.00 in   Overcast
2:54 PM 26.1 °F 13.1 °F 18.0 °F 71% 29.78 in 10.0 mi North 17.3 mph - N/A   Overcast
3:54 PM 25.0 °F 12.2 °F 16.0 °F 69% 29.82 in 10.0 mi NNW 16.1 mph - N/A   Overcast
4:54 PM 23.0 °F 10.6 °F 15.1 °F 72% 29.86 in 10.0 mi North 13.8 mph 20.7 mph N/A   Overcast
5:26 PM 21.2 °F 10.1 °F 14.0 °F 74% 29.82 in 10.0 mi NNW 10.4 mph - N/A   Overcast
5:54 PM 21.9 °F 9.8 °F 14.0 °F 72% 29.89 in 10.0 mi NNW 12.7 mph - N/A   Overcast
6:54 PM 19.9 °F 6.7 °F 12.9 °F 74% 29.93 in 9.0 mi NNW 13.8 mph 23.0 mph 0.00 in Snow Light Snow
7:54 PM 19.0 °F 6.1 °F 12.0 °F 74% 29.95 in 9.0 mi NNW 12.7 mph - 0.00 in Snow Light Snow
8:20 PM 19.4 °F 8.6 °F 12.2 °F 74% 29.89 in 7.0 mi NNW 9.2 mph - 0.00 in Snow Light Snow
8:27 PM 19.4 °F 7.9 °F 12.2 °F 74% 29.90 in 9.0 mi NW 10.4 mph 19.6 mph 0.00 in   Overcast
8:54 PM 18.0 °F 4.2 °F 10.0 °F 71% 29.97 in 6.0 mi NNW 13.8 mph 25.3 mph 0.00 in Snow Light Snow
9:54 PM 17.1 °F 5.0 °F 9.0 °F 71% 29.97 in 10.0 mi NNW 10.4 mph - 0.00 in   Overcast
10:54 PM 15.1 °F 3.3 °F 8.1 °F 74% 29.98 in 10.0 mi NW 9.2 mph - N/A   Scattered Clouds
11:54 PM 14.0 °F 1.2 °F 7.0 °F 74% 29.99 in 10.0 mi NW 10.4 mph - N/A   Clear